{"data":{"norad_id":48064,"intl_designator":"2021-025Y","name":"ONEWEB-0167","alt_names":[],"object_type":"PAYLOAD","status":"ACTIVE","operator":null,"country":"UK","launch_date":"2021-03-25","launch_site_code":"VOSTO","launch_vehicle":null,"mission":null,"orbit_class":"UNKNOWN","rcs_meters":null,"size_class":null,"mass_kg":null,"dimensions":null,"purposes":["comms"],"wikipedia_slug":null,"has_3d_model":false,"image_url":null,"decayed_at":null,"tle_current":{"epoch":"2026-05-25T04:40:15.775392Z","epoch_age_seconds":54278,"freshness":"FRESH","line1":"1 48064U 21025Y   26145.19462703  .00000122  00000+0  29801-3 0  9999","line2":"2 48064  87.8941 324.8117 0001117  93.4800 266.6457 13.13470878250556","mean_motion":13.13470878,"eccentricity":0.0001117,"inclination_deg":87.8941,"raan_deg":324.8117,"arg_perigee_deg":93.48,"mean_anomaly_deg":266.6457,"bstar":0.00029801,"rev_number":25055,"period_min":109.63318822817,"perigee_km":1208.9144501173,"apogee_km":1210.609586758,"semimajor_km":7587.8990184376,"source":"CELESTRAK","updated_at":"2026-05-25T13:38:22.392301Z"}}}